Location: Corcelles
(46.1547°N, 4.7234°E)
Time: 08:52:55
(UTC+00:00)

Okean 3 - Pass Details

Date: 14 July 2020
Orbit: 576 x 601 km, 82.5° (Epoch: 14 August)

Event Time Altitude Azimuth Distance (km) Brightness Sun altitude
Rises 01:50:16 0° 348° (NNW) 2,805 7.7 -16.7°
Reaches altitude 10° 01:52:28 10° 346° (NNW) 1,903 6.7 -16.5°
Maximum altitude 01:56:39 69° 264° (W) 626 3.4 -16.1°
Enters shadow 01:58:48 27° 187° (S) 1,123 4.4 -15.9°
